TimeCST,TemperatureF,Dew PointF,Humidity,Sea Level PressureIn,VisibilityMPH,Wind Direction,Wind SpeedMPH,Gust SpeedMPH,PrecipitationIn,Events,Conditions,WindDirDegrees,DateUTC
12:15 AM,30.9,30.9,100,30.49,5.0,Calm,Calm,-,N/A,,Clear,0,2012-11-17 06:15:00
12:35 AM,31.8,31.8,100,30.49,5.0,Calm,Calm,-,N/A,,Clear,0,2012-11-17 06:35:00
12:55 AM,30.4,30.4,100,30.49,4.0,Calm,Calm,-,N/A,,Clear,0,2012-11-17 06:55:00
1:15 AM,29.8,29.8,100,30.49,4.0,Calm,Calm,-,N/A,,Clear,0,2012-11-17 07:15:00
1:35 AM,28.4,28.4,100,30.49,5.0,Calm,Calm,-,N/A,,Clear,0,2012-11-17 07:35:00
1:55 AM,28.4,28.4,100,30.49,5.0,Calm,Calm,-,N/A,,Clear,0,2012-11-17 07:55:00
2:15 AM,28.2,28.2,100,30.49,5.0,Calm,Calm,-,N/A,,Clear,0,2012-11-17 08:15:00
2:35 AM,28.6,28.6,100,30.49,5.0,Calm,Calm,-,N/A,,Clear,0,2012-11-17 08:35:00
2:55 AM,30.0,30.0,100,30.49,4.0,Calm,Calm,-,N/A,,Clear,0,2012-11-17 08:55:00
3:15 AM,28.4,28.4,100,30.49,3.0,Calm,Calm,-,N/A,,Clear,0,2012-11-17 09:15:00
3:35 AM,27.7,27.7,100,30.49,4.0,Calm,Calm,-,N/A,,Clear,0,2012-11-17 09:35:00
3:55 AM,28.6,28.6,100,30.49,4.0,Calm,Calm,-,N/A,,Clear,0,2012-11-17 09:55:00
4:15 AM,28.0,28.0,100,30.50,4.0,Calm,Calm,-,N/A,,Clear,0,2012-11-17 10:15:00
4:35 AM,28.0,28.0,100,30.50,4.0,Calm,Calm,-,N/A,,Clear,0,2012-11-17 10:35:00
4:55 AM,28.4,28.4,100,30.51,4.0,Calm,Calm,-,N/A,,Clear,0,2012-11-17 10:55:00
5:15 AM,27.1,27.1,100,30.51,4.0,Calm,Calm,-,N/A,,Clear,0,2012-11-17 11:15:00
5:35 AM,25.7,25.7,100,30.52,4.0,Calm,Calm,-,N/A,,Clear,0,2012-11-17 11:35:00
5:55 AM,29.1,29.1,100,30.53,4.0,NW,3.5,-,N/A,,Clear,320,2012-11-17 11:55:00
6:15 AM,29.7,29.7,100,30.53,4.0,Calm,Calm,-,N/A,,Clear,0,2012-11-17 12:15:00
6:35 AM,28.4,28.4,100,30.54,2.5,Calm,Calm,-,N/A,,Clear,0,2012-11-17 12:35:00
6:55 AM,29.8,29.8,100,30.54,2.0,Calm,Calm,-,N/A,,Clear,0,2012-11-17 12:55:00
7:15 AM,29.7,29.7,100,30.55,2.5,NNW,3.5,-,N/A,,Clear,340,2012-11-17 13:15:00
7:35 AM,31.5,31.5,100,30.55,2.5,Calm,Calm,-,N/A,,Clear,0,2012-11-17 13:35:00
7:55 AM,33.3,33.3,100,30.55,2.5,Calm,Calm,-,N/A,,Clear,0,2012-11-17 13:55:00
8:15 AM,36.1,35.8,99,30.55,4.0,Calm,Calm,-,N/A,,Clear,0,2012-11-17 14:15:00
8:35 AM,37.8,36.5,95,30.56,4.0,Calm,Calm,-,N/A,,Clear,0,2012-11-17 14:35:00
8:55 AM,40.1,38.1,93,30.56,4.0,Calm,Calm,-,N/A,,Clear,0,2012-11-17 14:55:00
9:15 AM,41.7,38.5,88,30.57,5.0,Calm,Calm,-,N/A,,Clear,0,2012-11-17 15:15:00
9:35 AM,44.4,39.4,82,30.56,4.0,NE,3.5,-,N/A,,Haze,50,2012-11-17 15:35:00
9:55 AM,47.1,37.2,68,30.56,1.5,ENE,4.6,-,N/A,,Haze,60,2012-11-17 15:55:00
10:15 AM,49.1,37.6,64,30.56,5.0,Calm,Calm,-,N/A,,Haze,0,2012-11-17 16:15:00
10:35 AM,50.4,38.1,63,30.55,2.5,East,3.5,-,N/A,,Haze,90,2012-11-17 16:35:00
11:55 AM,54.5,36.9,51,30.51,4.0,ENE,3.5,-,N/A,,Haze,60,2012-11-17 17:55:00
12:15 PM,55.6,37.0,50,30.50,5.0,ENE,4.6,-,N/A,,Haze,60,2012-11-17 18:15:00
12:35 PM,56.3,36.1,47,30.49,10.0,NNE,4.6,-,N/A,,Clear,20,2012-11-17 18:35:00
12:55 PM,56.8,35.2,44,30.49,7.0,Calm,Calm,-,N/A,,Clear,0,2012-11-17 18:55:00
1:15 PM,57.6,34.2,41,30.48,10.0,ENE,5.8,-,N/A,,Clear,60,2012-11-17 19:15:00
1:55 PM,58.1,32.7,38,30.46,10.0,NE,4.6,-,N/A,,Clear,50,2012-11-17 19:55:00
2:15 PM,58.1,31.5,36,30.46,10.0,Calm,Calm,-,N/A,,Clear,0,2012-11-17 20:15:00
2:35 PM,58.5,33.6,39,30.46,10.0,ENE,3.5,-,N/A,,Clear,60,2012-11-17 20:35:00
2:55 PM,59.0,33.6,38,30.45,10.0,ENE,3.5,-,N/A,,Clear,60,2012-11-17 20:55:00
3:15 PM,58.1,34.3,41,30.45,10.0,East,3.5,-,N/A,,Clear,80,2012-11-17 21:15:00
3:35 PM,57.2,34.5,43,30.45,10.0,East,4.6,-,N/A,,Clear,80,2012-11-17 21:35:00
3:55 PM,55.6,35.8,47,30.45,10.0,ENE,3.5,-,N/A,,Clear,70,2012-11-17 21:55:00
4:15 PM,54.0,34.3,47,30.45,10.0,Calm,Calm,-,N/A,,Clear,0,2012-11-17 22:15:00
4:35 PM,53.1,34.3,49,30.45,10.0,Calm,Calm,-,N/A,,Clear,0,2012-11-17 22:35:00
4:55 PM,48.6,34.5,58,30.45,7.0,Calm,Calm,-,N/A,,Clear,0,2012-11-17 22:55:00
5:15 PM,44.1,36.1,74,30.45,10.0,North,3.5,-,N/A,,Clear,350,2012-11-17 23:15:00
5:55 PM,41.7,34.7,76,30.45,10.0,Calm,Calm,-,N/A,,Clear,0,2012-11-17 23:55:00
6:15 PM,40.8,34.0,77,30.45,10.0,Calm,Calm,-,N/A,,Clear,0,2012-11-18 00:15:00
6:35 PM,39.6,34.3,82,30.45,10.0,Calm,Calm,-,N/A,,Clear,0,2012-11-18 00:35:00
6:55 PM,38.1,34.3,86,30.45,10.0,Calm,Calm,-,N/A,,Clear,0,2012-11-18 00:55:00
7:15 PM,39.2,35.2,86,30.45,10.0,Calm,Calm,-,N/A,,Clear,0,2012-11-18 01:15:00
7:35 PM,37.2,35.8,95,30.45,10.0,Calm,Calm,-,N/A,,Clear,0,2012-11-18 01:35:00
7:55 PM,37.2,34.9,91,30.45,7.0,East,4.6,-,N/A,,Clear,100,2012-11-18 01:55:00
8:15 PM,35.4,33.3,92,30.44,7.0,East,6.9,-,N/A,,Clear,80,2012-11-18 02:15:00
8:55 PM,41.2,33.8,75,30.44,10.0,East,3.5,-,N/A,,Clear,80,2012-11-18 02:55:00
9:15 PM,41.2,33.6,74,30.44,10.0,ENE,4.6,-,N/A,,Clear,60,2012-11-18 03:15:00
9:35 PM,39.7,32.7,76,30.45,7.0,East,3.5,-,N/A,,Clear,90,2012-11-18 03:35:00
9:55 PM,39.4,32.7,77,30.45,10.0,Calm,Calm,-,N/A,,Clear,0,2012-11-18 03:55:00
10:15 PM,40.1,33.6,78,30.45,10.0,Calm,Calm,-,N/A,,Clear,0,2012-11-18 04:15:00
10:35 PM,35.8,32.2,87,30.45,10.0,Calm,Calm,-,N/A,,Clear,0,2012-11-18 04:35:00
10:55 PM,33.6,31.8,93,30.45,10.0,Calm,Calm,-,N/A,,Clear,0,2012-11-18 04:55:00
11:15 PM,33.1,30.9,92,30.45,10.0,Calm,Calm,-,N/A,,Clear,0,2012-11-18 05:15:00
11:35 PM,32.0,32.0,100,30.45,10.0,West,3.5,-,N/A,,Clear,280,2012-11-18 05:35:00
11:55 PM,32.2,32.2,100,30.45,10.0,Calm,Calm,-,N/A,,Clear,0,2012-11-18 05:55:00